Tracking 29967 objects as of 5-Dec-2024
HD Live streaming from Space Station
objects crossing your sky now

GORIZONT 32

Track GORIZONT 32 now!
GORIZONT 32 is classified as:


NORAD ID: 23880
Int'l Code: 1996-034A
Perigee: 35,786.4 km
Apogee: 35,843.2 km
Inclination: 14.4 °
Period: 1,437.2 minutes
Semi major axis: 42185 km
RCS: 17.7827 m2 (large)
Launch date: May 25, 1996
Source: Commonwealth of Independent States (former USSR) (CIS)
Launch site: TYURATAM MISSILE AND SPACE COMPLEX (TTMTR)

Telecommunications; augment television channels available to the people of Siberia.
Your satellite tracking list
Your tracking list is empty




NASA's NSSDC Master Catalog

Two Line Element Set (TLE):
1 23880U 96034A   24339.86908613 -.00000248  00000-0  00000-0 0  9990
2 23880  14.4224 359.1769 0006722 347.2076   6.9954  1.00196742104420
Source of the keplerian elements: AFSPC